Location: ???????????
(54.5822°N, 39.1075°E)
Time: 04:38:34
(UTC+00:00)

USA 229 DEB - Pass Details

Date: 19 May 2025
Orbit: 872 x 1339 km, 63.4° (Epoch: 17 June)

Event Time Altitude Azimuth Distance (km) Brightness Sun altitude
Exits shadow 21:33:21 19° 209° (SSW) 2,088 4.7 -15.4°
Maximum altitude 21:37:53 67° 131° (SE) 1,086 3.6 -15.3°
Drops below altitude 10° 21:44:45 10° 51° (NE) 2,957 6.7 -15.3°
Sets 21:47:35 0° 49° (NE) 3,990 7.5 -15.2°
